GW6191 Weather Reports


time (UTC)temp
C
wind
direction
speed
KPH
gust
KPH
rain 1hr
cm
rain 24hr
cm
rain mn
cm
humidity
%
barometer
mb
20260906225516 36 169 6.4 12.9 0.00 0.00 0.00 39 1011.3
20260906225021 36 136 4.8 12.9 0.00 0.00 0.00 39 1011.4
20260906224533 36 194 4.8 19.3 0.00 0.00 0.00 39 1011.3
20260906224014 36 115 6.4 19.3 0.00 0.00 0.00 39 1011.4
20260906223514 36 116 8.0 19.3 0.00 0.00 0.00 39 1011.4
20260906223021 36 97 3.2 14.5 0.00 0.00 0.00 39 1011.5
20260906222511 36 134 6.4 16.1 0.00 0.00 0.00 39 1011.6
20260906222014 36 236 3.2 17.7 0.00 0.00 0.00 39 1011.7
20260906221533 36 200 9.7 17.7 0.00 0.00 0.00 38 1011.7
20260906221016 36 116 3.2 14.5 0.00 0.00 0.00 40 1011.6
20260906220513 36 136 4.8 14.5 0.00 0.00 0.00 40 1011.6
20260906220058 36 149 1.6 14.5 0.00 0.00 0.00 39 1011.7
20260906215521 36 163 6.4 17.7 0.00 0.00 0.00 39 1011.6
20260906215018 37 132 9.7 17.7 0.00 0.00 0.00 38 1011.7
20260906214525 37 144 6.4 17.7 0.00 0.00 0.00 39 1011.8
20260906214011 37 130 6.4 17.7 0.00 0.00 0.00 40 1011.9
20260906213509 36 132 3.2 16.1 0.00 0.00 0.00 40 1011.9
20260906213011 37 132 6.4 16.1 0.00 0.00 0.00 40 1012.1
20260906212503 36 88 8.0 16.1 0.00 0.00 0.00 40 1012.1
20260906212008 36 138 3.2 16.1 0.00 0.00 0.00 40 1012.2
20260906211505 37 120 8.0 16.1 0.00 0.00 0.00 39 1012.3
20260906211006 36 223 0.0 11.3 0.00 0.00 0.00 39 1012.3
20260906210506 36 140 4.8 19.3 0.00 0.00 0.00 39 1012.5
20260906210003 36 138 8.0 19.3 0.00 0.00 0.00 38 1012.7
20260906205504 36 155 6.4 16.1 0.00 0.00 0.00 41 1012.6
20260906205004 36 153 6.4 19.3 0.00 0.00 0.00 42 1012.7
20260906204509 35 184 8.0 19.3 0.00 0.00 0.00 41 1012.7
20260906204007 36 151 3.2 16.1 0.00 0.00 0.00 40 1012.7
20260906203508 36 30 4.8 14.5 0.00 0.00 0.00 41 1012.7
20260906203008 36 105 6.4 17.7 0.00 0.00 0.00 41 1012.8
20260906202507 36 74 8.0 17.7 0.00 0.00 0.00 39 1012.8
20260906202012 36 117 4.8 17.7 0.00 0.00 0.00 41 1012.7
20260906201509 36 39 6.4 17.7 0.00 0.00 0.00 41 1012.8
20260906201008 36 76 4.8 17.7 0.00 0.00 0.00 41 1012.9
20260906200511 36 154 8.0 20.9 0.00 0.00 0.00 43 1012.9
20260906200028 36 148 9.7 20.9 0.00 0.00 0.00 40 1013.0
20260906195504 36 168 9.7 17.7 0.00 0.00 0.00 41 1012.9
20260906195007 36 69 4.8 19.3 0.00 0.00 0.00 42 1013.0
20260906194507 36 151 6.4 19.3 0.00 0.00 0.00 43 1013.0
20260906194003 36 25 6.4 14.5 0.00 0.00 0.00 40 1013.2
20260906193504 37 171 6.4 14.5 0.00 0.00 0.00 43 1013.2
20260906193008 36 82 4.8 12.9 0.00 0.00 0.00 43 1013.2
20260906192511 36 142 6.4 20.9 0.00 0.00 0.00 43 1013.3
20260906192006 36 172 9.7 19.3 0.00 0.00 0.00 43 1013.4
20260906191510 35 166 8.0 19.3 0.00 0.00 0.00 43 1013.6
20260906191008 35 166 8.0 22.5 0.00 0.00 0.00 45 1013.5
20260906190508 35 136 8.0 22.5 0.00 0.00 0.00 44 1013.6
20260906190010 36 87 6.4 16.1 0.00 0.00 0.00 44 1013.7
20260906185507 35 134 8.0 20.9 0.00 0.00 0.00 43 1013.7
20260906185006 35 158 9.7 20.9 0.00 0.00 0.00 45 1013.7
20260906184506 35 135 8.0 17.7 0.00 0.00 0.00 44 1013.8
20260906184007 35 100 4.8 17.7 0.00 0.00 0.00 45 1013.7
20260906183511 35 150 9.7 17.7 0.00 0.00 0.00 45 1013.8
20260906183023 35 192 9.7 22.5 0.00 0.00 0.00 46 1013.9
20260906182512 35 134 11.3 22.5 0.00 0.00 0.00 43 1013.9
20260906182010 35 132 6.4 17.7 0.00 0.00 0.00 46 1014.0
20260906181513 35 115 3.2 14.5 0.00 0.00 0.00 44 1014.1
20260906181007 35 101 1.6 19.3 0.00 0.00 0.00 45 1014.2
20260906180507 34 352 4.8 19.3 0.00 0.00 0.00 47 1014.2
20260906180027 35 131 9.7 17.7 0.00 0.00 0.00 46 1014.3
20260906175512 35 80 4.8 17.7 0.00 0.00 0.00 47 1014.3
20260906175008 35 100 8.0 20.9 0.00 0.00 0.00 46 1014.5
20260906174520 34 130 9.7 17.7 0.00 0.00 0.00 48 1014.5
20260906174010 35 80 6.4 12.9 0.00 0.00 0.00 47 1014.6
20260906173510 34 141 4.8 19.3 0.00 0.00 0.00 47 1014.8
20260906173017 34 167 3.2 19.3 0.00 0.00 0.00 49 1014.8
20260906172511 35 130 9.7 17.7 0.00 0.00 0.00 46 1014.9
20260906172006 34 111 6.4 19.3 0.00 0.00 0.00 47 1015.0
20260906171508 34 116 6.4 19.3 0.00 0.00 0.00 48 1014.9
20260906171010 34 135 8.0 19.3 0.00 0.00 0.00 49 1014.8
20260906170514 34 120 9.7 19.3 0.00 0.00 0.00 48 1014.9
20260906170015 33 41 4.8 14.5 0.00 0.00 0.00 53 1014.9
20260906165508 33 138 4.8 14.5 0.00 0.00 0.00 51 1015.1
20260906165016 34 80 3.2 16.1 0.00 0.00 0.00 50 1015.2
20260906164528 33 133 6.4 16.1 0.00 0.00 0.00 50 1015.3
20260906164006 33 63 4.8 14.5 0.00 0.00 0.00 52 1015.4
20260906163510 33 127 8.0 14.5 0.00 0.00 0.00 51 1015.2
20260906163026 33 154 4.8 12.9 0.00 0.00 0.00 51 1015.2
20260906162512 33 184 3.2 17.7 0.00 0.00 0.00 52 1015.1
20260906162007 33 136 8.0 17.7 0.00 0.00 0.00 52 1015.2
20260906161518 33 137 3.2 9.7 0.00 0.00 0.00 56 1015.3
20260906161007 33 47 4.8 12.9 0.00 0.00 0.00 54 1015.3
20260906160507 32 144 1.6 12.9 0.00 0.00 0.00 54 1015.2
20260906160015 33 136 3.2 11.3 0.00 0.00 0.00 54 1015.2
20260906155510 32 163 4.8 11.3 0.00 0.00 0.00 56 1015.2
20260906155010 32 105 4.8 11.3 0.00 0.00 0.00 54 1015.2
20260906154519 32 51 1.6 9.7 0.00 0.00 0.00 57 1015.3
20260906154006 32 144 3.2 6.4 0.00 0.00 0.00 59 1015.2
20260906153502 32 113 0.0 6.4 0.00 0.00 0.00 58 1015.1
20260906153010 32 131 3.2 8.0 0.00 0.00 0.00 60 1015.0
20260906152503 32 68 3.2 8.0 0.00 0.00 0.00 61 1015.1
20260906152008 31 203 0.0 6.4 0.00 0.00 0.00 61 1014.9
20260906151508 31 44 0.0 3.2 0.00 0.00 0.00 62 1014.9
20260906151008 31 62 0.0 4.8 0.00 0.00 0.00 61 1014.8
20260906150504 31 60 1.6 4.8 0.00 0.00 0.00 64 1014.8
20260906150018 31 23 3.2 8.0 0.00 0.00 0.00 65 1014.7
20260906145505 30 117 4.8 8.0 0.00 0.00 0.00 65 1014.6
20260906145008 30 118 1.6 6.4 0.00 0.00 0.00 67 1014.6
20260906144507 30 153 1.6 6.4 0.00 0.00 0.00 66 1014.6
20260906144004 30 174 0.0 9.7 0.00 0.00 0.00 67 1014.6
20260906143508 29 84 1.6 9.7 0.00 0.00 0.00 68 1014.6
20260906143020 29 190 1.6 6.4 0.00 0.00 0.00 69 1014.6
20260906142506 29 159 1.6 4.8 0.00 0.00 0.00 69 1014.7
20260906142008 29 155 1.6 4.8 0.00 0.00 0.00 68 1014.6
20260906141505 28 113 0.0 6.4 0.00 0.00 0.00 71 1014.6
20260906141005 28 127 0.0 6.4 0.00 0.00 0.00 71 1014.6
20260906140504 28 127 1.6 6.4 0.00 0.00 0.00 71 1014.5
20260906140013 28 78 0.0 6.4 0.00 0.00 0.00 72 1014.6
20260906135507 28 139 1.6 6.4 0.00 0.00 0.00 73 1014.7
20260906135008 27 130 3.2 6.4 0.00 0.00 0.00 73 1014.8
20260906134510 27 100 0.0 4.8 0.00 0.00 0.00 75 1014.7
20260906134009 27 109 3.2 4.8 0.00 0.00 0.00 75 1014.9
20260906133510 27 93 1.6 4.8 0.00 0.00 0.00 76 1014.8
20260906133006 26 101 0.0 6.4 0.00 0.00 0.00 77 1014.7
20260906132508 26 117 3.2 6.4 0.00 0.00 0.00 77 1014.7
20260906132006 26 109 1.6 6.4 0.00 0.00 0.00 78 1014.8
20260906131523 26 147 3.2 6.4 0.00 0.00 0.00 79 1014.8
20260906131008 26 136 1.6 4.8 0.00 0.00 0.00 80 1014.7
20260906130510 26 163 1.6 4.8 0.00 0.00 0.00 81 1014.7
20260906130006 25 149 0.0 3.2 0.00 0.00 0.00 81 1014.6
20260906125504 25 113 0.0 0.0 0.00 0.00 0.00 81 1014.5
20260906125008 25 119 0.0 3.2 0.00 0.00 0.00 80 1014.6
20260906124511 25 119 0.0 3.2 0.00 0.00 0.00 82 1014.5
20260906124008 25 130 0.0 0.0 0.00 0.00 0.00 82 1014.4
20260906123507 25 130 0.0 0.0 0.00 0.00 0.00 81 1014.4
20260906123013 25 130 0.0 0.0 0.00 0.00 0.00 81 1014.3
20260906122511 25 163 0.0 0.0 0.00 0.00 0.00 81 1014.2
20260906122010 24 163 0.0 0.0 0.00 0.00 0.00 82 1014.1
20260906121517 24 163 0.0 0.0 0.00 0.00 0.00 82 1014.1
20260906121010 24 163 0.0 0.0 0.00 0.00 0.00 82 1014.0
20260906120510 24 163 0.0 0.0 0.00 0.00 0.00 82 1014.0
20260906120010 24 163 0.0 0.0 0.00 0.00 0.00 81 1014.0
20260906115510 24 163 0.0 0.0 0.00 0.00 0.00 80 1013.9
20260906115007 25 116 0.0 0.0 0.00 0.00 0.00 81 1013.9
20260906114524 25 116 0.0 0.0 0.00 0.00 0.00 79 1013.9
20260906114011 25 116 0.0 0.0 0.00 0.00 0.00 78 1013.9
20260906113510 25 116 0.0 0.0 0.00 0.00 0.00 78 1013.8
20260906113019 25 116 0.0 0.0 0.00 0.00 0.00 78 1013.8
20260906112509 25 116 0.0 0.0 0.00 0.00 0.00 78 1013.8
20260906112010 25 116 0.0 0.0 0.00 0.00 0.00 78 1013.8
20260906111518 25 116 0.0 0.0 0.00 0.00 0.00 78 1013.7
20260906111011 25 116 0.0 0.0 0.00 0.00 0.00 77 1013.7
20260906110508 26 140 0.0 3.2 0.00 0.00 0.00 77 1013.6
20260906110031 26 140 0.0 3.2 0.00 0.00 0.00 77 1013.6
20260906105511 25 109 0.0 0.0 0.00 0.00 0.00 78 1013.5
20260906105012 25 109 0.0 0.0 0.00 0.00 0.00 79 1013.4
20260906104522 25 109 0.0 0.0 0.00 0.00 0.00 78 1013.4
20260906104012 25 109 0.0 0.0 0.00 0.00 0.00 78 1013.4
20260906103509 25 109 0.0 0.0 0.00 0.00 0.00 77 1013.5
20260906103017 26 109 0.0 0.0 0.00 0.00 0.00 77 1013.5
20260906102510 26 109 0.0 0.0 0.00 0.00 0.00 77 1013.4
20260906102016 26 109 0.0 0.0 0.00 0.00 0.00 76 1013.4
20260906101521 26 109 0.0 0.0 0.00 0.00 0.00 76 1013.3
20260906101014 26 109 0.0 0.0 0.00 0.00 0.00 76 1013.3
20260906100512 26 109 0.0 0.0 0.00 0.00 0.00 76 1013.3
20260906100020 26 109 0.0 0.0 0.00 0.00 0.00 77 1013.2
20260906095511 25 109 0.0 0.0 0.00 0.00 0.00 77 1013.2
20260906095013 26 109 0.0 0.0 0.00 0.00 0.00 75 1013.2
20260906094531 26 109 0.0 0.0 0.00 0.00 0.00 75 1013.2
20260906094007 26 109 0.0 0.0 0.00 0.00 0.00 75 1013.2
20260906093507 26 109 0.0 0.0 0.00 0.00 0.00 75 1013.1
20260906093015 26 127 0.0 0.0 0.00 0.00 0.00 75 1013.0
20260906092506 26 161 0.0 0.0 0.00 0.00 0.00 76 1013.0
20260906092014 26 161 0.0 0.0 0.00 0.00 0.00 75 1013.0
20260906091517 26 161 0.0 0.0 0.00 0.00 0.00 76 1012.9
20260906091011 26 161 0.0 1.6 0.00 0.00 0.00 76 1012.9
20260906090511 26 161 0.0 3.2 0.00 0.00 0.00 76 1012.9
20260906090024 26 189 0.0 3.2 0.00 0.00 0.00 76 1012.9
20260906085513 26 161 0.0 3.2 0.00 0.00 0.00 76 1012.9
20260906085007 27 172 0.0 6.4 0.00 0.00 0.00 74 1012.9
20260906084519 27 172 1.6 6.4 0.00 0.00 0.00 74 1012.9
20260906084007 27 181 3.2 8.0 0.00 0.00 0.00 74 1012.9
20260906083507 26 188 3.2 8.0 0.00 0.00 0.00 74 1012.8
20260906083008 26 174 4.8 9.7 0.00 0.00 0.00 74 1012.7
20260906082508 27 196 4.8 9.7 0.00 0.00 0.00 74 1012.6
20260906082012 27 198 3.2 8.0 0.00 0.00 0.00 74 1012.7
20260906081531 27 186 3.2 9.7 0.00 0.00 0.00 73 1012.7
20260906081008 27 217 4.8 11.3 0.00 0.00 0.00 73 1012.7
20260906080515 27 182 4.8 11.3 0.00 0.00 0.00 72 1012.7
20260906080025 27 148 3.2 9.7 0.00 0.00 0.00 72 1012.9
20260906075509 27 168 4.8 8.0 0.00 0.00 0.00 72 1013.0
20260906075015 27 170 1.6 8.0 0.00 0.00 0.00 72 1013.1
20260906074523 27 170 4.8 8.0 0.00 0.00 0.00 72 1013.1
20260906074006 27 182 1.6 4.8 0.00 0.00 0.00 71 1013.2
20260906073509 27 172 0.0 4.8 0.00 0.00 0.00 72 1013.2
20260906073010 27 157 1.6 3.2 0.00 0.00 0.00 72 1013.2
20260906072507 27 162 0.0 4.8 0.00 0.00 0.00 73 1013.1
20260906072007 27 155 0.0 4.8 0.00 0.00 0.00 72 1013.1
20260906071516 27 150 1.6 6.4 0.00 0.00 0.00 73 1013.1
20260906071010 27 172 3.2 9.7 0.00 0.00 0.00 73 1013.0
20260906070513 27 189 1.6 9.7 0.00 0.00 0.00 72 1012.9
20260906070015 27 179 3.2 9.7 0.00 0.00 0.00 72 1013.0
20260906065511 27 172 1.6 4.8 0.00 0.00 0.00 73 1013.0
20260906065013 27 198 1.6 3.2 0.00 0.00 0.00 73 1013.1
20260906064510 27 198 3.2 4.8 0.00 0.00 0.00 71 1013.2
20260906064011 27 169 1.6 4.8 0.00 0.00 0.00 71 1013.3
20260906063514 27 184 0.0 4.8 0.00 0.00 0.00 71 1013.3
20260906063033 27 186 1.6 4.8 0.00 0.00 0.00 71 1013.2
20260906062515 27 177 1.6 6.4 0.00 0.00 0.00 71 1013.2
20260906062011 27 188 3.2 6.4 0.00 0.00 0.00 71 1013.1
20260906061516 27 200 1.6 6.4 0.00 0.00 0.00 71 1013.2
20260906061010 28 205 3.2 4.8 0.00 0.00 0.00 71 1013.2
20260906060510 27 242 0.0 3.2 0.00 0.00 0.00 71 1013.3
20260906060018 27 242 0.0 3.2 0.00 0.00 0.00 71 1013.3
20260906055511 28 194 1.6 3.2 0.00 0.00 0.00 70 1013.3
20260906055012 28 191 0.0 3.2 0.00 0.00 0.00 70 1013.4
20260906054525 28 191 0.0 4.8 0.00 0.00 0.00 69 1013.3
20260906054014 28 190 0.0 6.4 0.00 0.00 0.00 68 1013.2
20260906053507 28 164 1.6 6.4 0.00 0.00 0.00 67 1013.3
20260906053023 29 152 1.6 6.4 0.00 0.00 0.00 67 1013.3
20260906052514 29 150 1.6 6.4 0.00 0.00 0.00 66 1013.4
20260906052019 29 148 3.2 8.0 0.00 0.00 0.00 66 1013.3
20260906051516 29 172 3.2 9.7 0.00 0.00 0.00 66 1013.4
20260906051016 29 141 4.8 9.7 0.00 0.00 0.00 66 1013.4
20260906050509 29 169 3.2 8.0 0.00 0.00 0.00 65 1013.3
20260906050019 29 165 3.2 9.7 0.00 0.00 0.00 65 1013.3
20260906045510 29 128 3.2 9.7 0.00 0.00 0.00 65 1013.2
20260906045011 29 153 3.2 6.4 0.00 0.00 0.00 65 1013.1
20260906044528 29 163 3.2 8.0 0.00 0.00 0.00 64 1013.2
20260906044012 30 147 1.6 8.0 0.00 0.00 0.00 64 1013.2
20260906043514 30 177 3.2 9.7 0.00 0.00 0.00 64 1013.3
20260906043030 30 185 4.8 9.7 0.00 0.00 0.00 64 1013.3
20260906042516 30 165 4.8 9.7 0.00 0.00 0.00 63 1013.2
20260906042012 30 136 4.8 11.3 0.00 0.00 0.00 63 1013.2
20260906041527 30 158 4.8 11.3 0.00 0.00 0.00 63 1013.1
20260906041021 30 179 3.2 8.0 0.00 0.00 0.00 63 1013.0
20260906040512 30 184 3.2 11.3 0.00 0.00 0.00 62 1013.2
20260906040033 30 147 3.2 12.9 0.00 0.00 0.00 62 1013.1
20260906035520 30 136 6.4 14.5 0.00 0.00 0.00 61 1013.1
20260906035010 30 162 4.8 14.5 0.00 0.00 0.00 61 1013.1
20260906034524 30 152 6.4 14.5 0.00 0.00 0.00 61 1013.1
20260906034012 30 130 4.8 14.5 0.00 0.00 0.00 60 1013.2
20260906033513 30 138 4.8 12.9 0.00 0.00 0.00 60 1013.1
20260906033018 30 155 3.2 16.1 0.00 0.00 0.00 60 1013.1
20260906032515 30 136 6.4 16.1 0.00 0.00 0.00 59 1013.2
20260906032016 31 144 6.4 16.1 0.00 0.00 0.00 59 1013.2
20260906031543 31 119 6.4 12.9 0.00 0.00 0.00 59 1013.2
20260906031014 31 160 4.8 12.9 0.00 0.00 0.00 58 1013.1
20260906030520 31 141 3.2 12.9 0.00 0.00 0.00 58 1013.1
20260906030033 31 131 6.4 17.7 0.00 0.00 0.00 58 1013.0
20260906025518 31 128 8.0 17.7 0.00 0.00 0.00 58 1013.0
20260906025013 31 109 6.4 12.9 0.00 0.00 0.00 57 1013.0
20260906024533 31 163 4.8 14.5 0.00 0.00 0.00 57 1013.0
20260906024012 31 120 6.4 14.5 0.00 0.00 0.00 57 1012.9
20260906023514 31 146 4.8 16.1 0.00 0.00 0.00 56 1012.9
20260906023024 31 146 6.4 16.1 0.00 0.00 0.00 55 1012.7
20260906022514 31 123 6.4 16.1 0.00 0.00 0.00 55 1012.7
20260906022014 32 156 8.0 17.7 0.00 0.00 0.00 54 1012.6
20260906021526 32 75 9.7 17.7 0.00 0.00 0.00 53 1012.4
20260906021015 32 137 6.4 17.7 0.00 0.00 0.00 53 1012.3
20260906020516 32 170 6.4 17.7 0.00 0.00 0.00 52 1012.3
20260906020030 32 152 9.7 17.7 0.00 0.00 0.00 50 1012.3
20260906015520 33 153 6.4 17.7 0.00 0.00 0.00 47 1012.2
20260906015018 33 152 6.4 17.7 0.00 0.00 0.00 45 1012.0
20260906014535 33 121 3.2 4.8 0.00 0.00 0.00 45 1011.9
20260906014019 33 118 1.6 4.8 0.00 0.00 0.00 45 1011.8
20260906013517 33 84 1.6 4.8 0.00 0.00 0.00 44 1011.8
20260906013039 33 85 1.6 6.4 0.00 0.00 0.00 44 1011.8
20260906012514 33 124 1.6 6.4 0.00 0.00 0.00 44 1011.7
20260906012013 33 160 1.6 6.4 0.00 0.00 0.00 44 1011.7
20260906011526 33 121 3.2 6.4 0.00 0.00 0.00 43 1011.6
20260906011019 33 133 3.2 6.4 0.00 0.00 0.00 43 1011.6
20260906010515 33 107 1.6 6.4 0.00 0.00 0.00 43 1011.6
20260906010030 34 109 1.6 6.4 0.00 0.00 0.00 42 1011.6
20260906005517 34 126 1.6 9.7 0.00 0.00 0.00 42 1011.4
20260906005018 34 150 1.6 9.7 0.00 0.00 0.00 42 1011.4
20260906004529 35 163 4.8 9.7 0.00 0.00 0.00 41 1011.4
20260906004021 35 120 4.8 9.7 0.00 0.00 0.00 41 1011.4
20260906003519 35 138 3.2 11.3 0.00 0.00 0.00 41 1011.4
20260906003027 35 123 3.2 11.3 0.00 0.00 0.00 40 1011.4
20260906002517 35 126 4.8 11.3 0.00 0.00 0.00 40 1011.4
20260906002008 35 163 4.8 9.7 0.00 0.00 0.00 40 1011.4
20260906001518 35 90 1.6 6.4 0.00 0.00 0.00 40 1011.4
20260906001016 35 115 3.2 11.3 0.00 0.00 0.00 40 1011.4
20260906000507 36 105 3.2 11.3 0.00 0.00 0.00 40 1011.3
20260906000006 36 78 3.2 14.5 0.00 0.00 0.00 39 1011.3
20260905235503 36 107 3.2 14.5 0.00 0.00 0.00 38 1011.3
20260905235003 36 84 3.2 11.3 0.00 0.00 0.00 39 1011.2
20260905234509 36 138 4.8 11.3 0.00 0.00 0.00 38 1011.2
20260905234004 36 126 3.2 9.7 0.00 0.00 0.00 39 1011.2
20260905233510 36 62 4.8 9.7 0.00 0.00 0.00 40 1011.2
20260905233011 36 86 3.2 11.3 0.00 0.00 0.00 39 1011.2
20260905232513 36 148 0.0 11.3 0.00 0.00 0.00 39 1011.2
20260905232012 36 150 4.8 11.3 0.00 0.00 0.00 39 1011.2
20260905231506 36 186 1.6 11.3 0.00 0.00 0.00 37 1011.2
20260905231009 36 148 3.2 8.0 0.00 0.00 0.00 37 1011.2
20260905230517 36 134 3.2 11.3 0.00 0.00 0.00 37 1011.2
20260905230029 37 81 1.6 12.9 0.00 0.00 0.00 39 1011.1